#timestamp,LO_Frequency,Hit,StdDev 
1692482415.5,286047002.5,N
1692482435.3,286047002.8,N
1692482455.2,286047000.3,N
1692482475.9,286046998.2,N
1692482495.7,286047001.0,N
1692482515.6,286047000.7,N
1692482535.4,286047000.9,N
1692482555.2,286046998.2,N
1692482575.1,286046998.3,N
1692482576.0,286046998.3,N
1692482595.8,286046998.6,N
1692482615.7,286046999.0,N
1692482635.5,286046996.5,N
1692482655.3,286046998.7,N
1692482675.2,286046998.8,N
1692482695.0,286046998.6,N
1692482695.9,286046998.6,N
1692482715.7,286047000.8,N
1692482735.6,286046999.9,N
1692482755.4,286047000.9,N
1692482775.3,286046998.6,N
1692482795.1,286046998.2,N
1692482796.0,286046998.2,N
1692482815.8,286047001.1,N
1692482835.7,286047000.7,N
1692482855.5,286047001.0,N
1692482875.3,286046999.7,N
1692482895.2,286047002.3,N
1692482915.0,286047002.8,N
1692482915.9,286047002.8,N
1692482935.8,286047000.1,N
1692482955.6,286047002.4,N
1692482975.4,286047002.7,N
1692482995.3,286047000.3,N
1692483015.1,286046998.4,N
1692483035.8,286046998.9,N
1692483055.7,286046998.2,N
1692483075.5,286046998.6,N
1692483095.4,286047000.4,N
1692483115.2,286046998.3,N
1692483135.0,286047001.2,N
1692483135.9,286047001.2,N
1692483155.8,286046998.1,N
1692483175.6,286046999.1,N
1692483195.4,286046996.5,N
1692483215.3,286046996.8,N
1692483235.1,286046999.1,N
1692483255.9,286046996.8,N
1692483275.7,286046997.5,N
1692483295.5,286046997.6,N
1692483315.4,286046997.8,N
1692483335.2,286046997.0,N
1692483355.0,286046997.0,N
1692483356.0,286046997.0,N
1692483375.8,286046998.8,N
1692483395.6,286046998.9,N
1692483415.5,286046996.9,N
1692483435.3,286046997.1,N
1692483455.1,286046994.9,N
1692483475.9,286046995.0,N
1692483495.7,286046995.4,N
1692483515.5,286046997.3,N
1692483535.4,286046999.5,N
1692483555.2,286046997.0,N
1692483575.1,286046999.5,N
1692483576.0,286046999.5,N
1692483595.8,286046999.3,N
1692483615.6,286046999.5,N
1692483635.5,286046999.2,N
1692483655.3,286046996.5,N
1692483675.2,286046997.8,N
1692483695.9,286046995.5,Y
1692483715.7,286046997.1,P
1692483735.6,286046997.5,P
1692483755.4,286046997.5,P
1692483775.3,286046997.3,Y
1692483795.1,286047000.5,P
1692483815.8,286046998.4,N
1692483835.7,286046999.1,N
1692483855.5,286046998.8,N
1692483875.4,286047000.6,N
1692483895.2,286047000.0,N
1692483915.0,286047001.2,N
1692483915.9,286047001.2,N
1692483935.8,286047000.3,N
1692483955.6,286047001.2,N
1692483975.4,286047000.1,N
1692483995.3,286047002.7,N
1692484015.1,286047000.4,N
1692484035.9,286047000.6,N
1692484055.7,286047000.0,N
1692484075.5,286047000.3,N
1692484095.4,286047000.7,N
1692484115.2,286047000.5,N
1692484135.0,286047000.3,N
1692484135.9,286047000.3,N
1692484155.8,286046999.9,N
1692484175.6,286047000.1,N
1692484195.5,286047002.5,N
1692484215.3,286047002.4,N
1692484235.1,286047002.5,N
1692484255.9,286047004.4,Y
1692484275.7,286047002.3,P
1692484295.5,286047002.4,N
1692484315.4,286047002.4,N
1692484335.2,286047000.1,N
1692484355.1,286047002.4,N
1692484356.0,286047002.4,N
1692484375.8,286047002.0,N
1692484395.6,286047001.6,N
1692484415.5,286047002.0,N
1692484435.3,286047001.5,N
1692484455.1,286047001.8,N
1692484475.9,286047001.3,N
1692484495.7,286047004.4,Y
1692484515.6,286046999.8,P
1692484535.4,286046999.9,N
1692484555.2,286047002.4,N
1692484575.1,286047002.6,N
1692484576.0,286047002.6,N
1692484595.8,286047002.4,N
1692484615.7,286047002.4,N
1692484635.5,286046999.8,N
1692484655.3,286047001.9,N
1692484675.2,286046999.8,N
1692484695.0,286047002.3,N
1692484695.9,286047002.3,N
1692484715.7,286046999.8,N
1692484735.6,286047002.1,N
1692484755.4,286047001.7,N
1692484775.3,286047002.0,N
1692484795.1,286047001.9,N
1692484796.0,286047001.9,N
1692484815.8,286047001.3,N
1692484835.7,286047001.6,N
1692484855.5,286047002.6,N
1692484875.3,286047001.5,N
1692484895.2,286047001.6,N
1692484915.0,286047001.8,N
1692484915.9,286047001.8,N
1692484935.8,286047003.7,Y
1692484955.6,286047001.3,P
1692484975.4,286047001.6,P
1692484995.3,286047001.4,P
1692485015.1,286047004.4,Y
1692485035.9,286047002.8,P
1692485055.7,286047002.4,P
1692485075.5,286047002.7,P
1692485095.4,286047002.0,Y
1692485115.2,286046998.6,P
1692485135.1,286046999.3,N
1692485136.0,286046999.3,N
1692485155.8,286046998.3,N
1692485175.6,286046998.9,N
1692485195.5,286046999.6,N
1692485215.3,286046999.2,N
1692485235.2,286046999.1,N
1692485255.9,286046998.3,N
1692485275.7,286046998.3,N
1692485295.6,286046999.0,N
1692485315.4,286046998.6,N
1692485335.2,286047011.9,Y
1692485355.1,286047000.9,P
1692485356.0,286047000.9,N
1692485375.8,286047000.7,N
1692485395.7,286047001.2,N
1692485415.5,286047000.9,N
1692485435.3,286047000.7,N
1692485455.2,286047000.8,N
1692485475.0,286046998.2,Y
1692485475.9,286046998.2,P
1692485495.7,286046998.8,N
1692485515.6,286046998.7,N
1692485535.4,286046999.4,N
1692485555.3,286046998.4,N
1692485575.1,286046998.4,N
1692485576.0,286046998.4,N
1692485595.8,286046998.4,N
1692485615.7,286046998.3,N
1692485635.5,286046998.9,N
1692485655.4,286046998.6,N
1692485675.2,286046998.8,N
1692485695.0,286046998.7,N
1692485695.9,286046998.7,N
1692485715.8,286046998.3,N
1692485735.6,286046998.8,N
1692485755.4,286047000.4,N
1692485775.3,286047000.5,N
1692485795.1,286047000.3,N
1692485815.9,286047000.3,N
1692485835.7,286047000.4,N
1692485855.5,286047000.0,N
1692485875.4,286046999.9,N
1692485895.2,286047000.2,N
1692485915.0,286046999.9,N
1692485915.9,286046999.9,N
1692485935.8,286047000.6,N
1692485955.6,286047002.8,Y
1692485975.5,286047002.4,P
1692485995.3,286047002.2,N
